Weather in Lomovoye

Russia / Lipetsk Oblast     53°17′00″N   39°52′09″E
temp.,
°C
wind,
m/s
gust,
m/s
humid.,
%
clouds,
%
prec.,
mm/h
press.,
hPa
HPBL,
m
8 august, mon
mon800:00+21ne2241100 0.0 101813
03:00+21se1139100 0.0 101811
06:00+21ne1146100 0.0 101911
09:00+23ne1245100 0.0 1019177
12:00+28wnw123375 0.0 1020810
15:00+31se242690 0.0 10192515
18:00+29ese12365 0.0 101837
21:00+23se22435 0.0 101912
9 august, tue
tue900:00+21sse114735 0.0 101911
03:00+20s224563 0.0 101916
06:00+20ssw2249100 0.0 101931
09:00+25ese113838 0.0 1019292
12:00+29w223185 0.0 10181336
15:00+29ne1235100 0.0 1017635
18:00+27n4643100 0.0 1017288
21:00+21n51065100 0.0 1018320
10 august, wed
wed1000:00+19n51280100 0.0 1018378
03:00+19ne41175100 0.0 1018342
06:00+17n4790100 0.5 1019201
09:00+19nne5682100 0.5 1019337
12:00+22nne566985 0.0 1020645
15:00+22nne6666100 0.0 1020728
18:00+22nne5663100 0.0 1020603
21:00+18nne51178100 0.0 1021423
11 august, thu
thu1100:00+17nne4118593 0.0 1022347
03:00+16nne5116499 0.0 1022365
06:00+14nne5107062 0.0 1024288
09:00+19ne674746 0.0 1024685
12:00+23ne56365 0.0 10241238
15:00+25ne55340 0.0 10231437
18:00+24ne46390 0.0 1023911
21:00+18ne47530 0.0 1024107
12 august, fri
fri1200:00+16ene355947 0.0 102475
03:00+14ene23655 0.0 102524
06:00+15ne23675 0.0 102651
09:00+21ene234723 0.0 1026526
12:00+25ene33375 0.0 10251456
15:00+27nne33335 0.0 10241748
18:00+26nne23370 0.0 1023382
21:00+20n335217 0.0 102439